Location: Litvinovka
(48.6667°N, 34.3500°E)
Time: 01:41:59
(UTC+00:00)

Cosmos 2263 Rocket - Pass Details

Date: 18 September 2020
Orbit: 822 x 849 km, 71.0° (Epoch: 23 October)

Event Time Altitude Azimuth Distance (km) Brightness Sun altitude
Rises 16:06:23 0° 187° (S) 3,343 5.3 -3.8°
Reaches altitude 10° 16:08:52 10° 182° (S) 2,416 4.5 -4.2°
Maximum altitude 16:14:08 47° 110° (ESE) 1,081 2.4 -5.1°
Drops below altitude 10° 16:19:29 10° 38° (NE) 2,444 4.3 -5.9°
Sets 16:22:00 0° 32° (NNE) 3,386 5.1 -6.3°
